User: anonymous   Login
Location: Newark
(50.1751°N, 5.6239°W)
Time: 14:56:19
(UTC+00:00)
Language:

ISS - Orbit

View from above orbital plane
View from above orbital plane
View from above satellite
View from above satellite

Ground track
Ground track

The orbit data is extracted from the following two-line orbital elements,

1 25544U 98067A   21301.54007520  .00004535  00000-0  90986-4 0  9993
2 25544  51.6449  43.3399 0003883 148.0307 301.3334 15.48818782309266
Epoch (UTC): 28 October 2021 12:57:42
Eccentricity: 0.0003883
inclination: 51.6449°
perigee height: 417 km
apogee height: 423 km
right ascension of ascending node: 43.3399°
argument of perigee: 148.0307°
revolutions per day: 15.48818782
mean anomaly at epoch: 301.3334°
orbit number at epoch: 30926

The dashed part of the orbit path shows where the satellite is in the earth's shadow,  

DLR